Regional Weather Roundup
Issued by NWS

Home | Current Version | Previous Version | Graphics & Text | Print | Product List | Glossary On
Versions: 1 2 3 4 5 6 7 8 9 10 11 12 13 14 15 16 17 18 19 20 21 22 23 24 25 26 27 28 29 30 31 32 33 34 35 36 37 38 39 40 41 42 43 44 45 46 47 48 49 50
000
ASUS43 KBIS 051410
RWRND

NORTH DAKOTA REGIONAL WEATHER ROUNDUP
NATIONAL WEATHER SERVICE BISMARCK ND
800 AM CST THU MAR 05 2015

NOTE: "FAIR" INDICATES FEW OR NO CLOUDS BELOW 12,000 FEET WITH NO
SIGNIFICANT WEATHER AND/OR OBSTRUCTIONS TO VISIBILITY.


NDZ001>003-009>011-017-051500-
NORTHWEST NORTH DAKOTA

CITY           SKY/WX    TMP DP  RH WIND       PRES   REMARKS
WILLISTON        N/A    N/A N/A N/A MISG      30.07S
MINOT          MOCLDY     0  -9  65 SW15      30.10F WCI -19
MINOT AFB      PTCLDY    -6 -12  73 S6        30.09F WCI -18
$$

NDZ018>021-031>035-040>046-051500-
SOUTHWEST NORTH DAKOTA

CITY           SKY/WX    TMP DP  RH WIND       PRES   REMARKS
BISMARCK       PTCLDY    -3  -9  75 SE6       30.20F WCI -15
DICKINSON      CLOUDY     9   0  67 S12       30.02F WCI  -6
GARRISON         N/A     -7 -12  79 SE6       30.12F WCI -20
HETTINGER ARPT CLOUDY     8   0  69 SW7       30.09F WCI  -3
$$

NDZ004>008-012>016-024-026-027-054-051500-
NORTHEAST NORTH DAKOTA

CITY           SKY/WX    TMP DP  RH WIND       PRES   REMARKS
GRAND FORKS    MOCLDY    -9 -15  75 S10       30.34S WCI -27
GRND FRKS AFB  CLEAR     -6 -15  65 S9        30.32S WCI -22
DEVILS LAKE    PTCLDY    -6 -15  65 S3        30.20S
$$

NDZ022-023-025-028>030-036>039-047>053-051500-
SOUTHEAST NORTH DAKOTA

CITY           SKY/WX    TMP DP  RH WIND       PRES   REMARKS
FARGO          PTCLDY    -4 -12  68 S9        30.39F WCI -20
JAMESTOWN      PTCLDY    -6 -12  75 S8        30.25F WCI -21
$$



USA.gov is the U.S. government's official web portal to all federal, state and local government web resources and services.